When you browse on this site, cookies collect data to enhance your experience and personalize the content and advertising you see.
Visit our Privacy Policy to learn more. By continuing to use the site, you agree to this use of cookies and data.
  • In Belgium
  • List of Countries
  • For 7 days
  • Water Temperature
  • Weather Map
  • Weather Widgets
  • user-avatar
    Login

    Hourly Weather Barinas

    Today, 6 April, Monday

    Time Temperature Precipitation Wind Pressure Humidity
    00:00 +29°C° 0.1 mm 1 mps 742 mmHg 77%
    01:00 +29°C° 0 mm 1 mps 742 mmHg 77%
    02:00 +28°C° 0 mm 1 mps 742 mmHg 76%
    03:00 +28°C° 0 mm 1 mps 741 mmHg 76%
    04:00 +28°C° 0 mm 1 mps 741 mmHg 76%
    05:00 +29°C° 0 mm 1 mps 742 mmHg 73%
    06:00 +29°C° 0 mm 2 mps 742 mmHg 70%
    07:00 +30°C° 0 mm 1 mps 743 mmHg 66%
    08:00 +31°C° 0.1 mm 2 mps 744 mmHg 62%
    09:00 +34°C° 0.1 mm 3 mps 744 mmHg 58%
    10:00 +35°C° 0.1 mm 4 mps 744 mmHg 54%
    11:00 +36°C° 0.1 mm 3 mps 743 mmHg 52%
    12:00 +37°C° 0.1 mm 3 mps 742 mmHg 49%
    13:00 +37°C° 0.1 mm 3 mps 741 mmHg 46%
    14:00 +37°C° 0 mm 3 mps 741 mmHg 46%
    15:00 +37°C° 0 mm 2 mps 741 mmHg 46%
    16:00 +37°C° 0 mm 2 mps 740 mmHg 46%
    17:00 +36°C° 0 mm 2 mps 741 mmHg 50%
    18:00 +34°C° 0 mm 1 mps 741 mmHg 54%
    19:00 +33°C° 0 mm 1 mps 742 mmHg 58%
    20:00 +32°C° 0.1 mm 1 mps 742 mmHg 61%
    21:00 +31°C° 0.1 mm 1 mps 742 mmHg 63%
    22:00 +31°C° 0.1 mm 2 mps 743 mmHg 66%
    23:00 +30°C° 0.3 mm 1 mps 743 mmHg 68%

    Tomorrow, 7 April, Tuesday

    Time Temperature Precipitation Wind Pressure Humidity
    00:00 +30°C° 0.3 mm 1 mps 742 mmHg 69%
    01:00 +29°C° 0.3 mm 1 mps 742 mmHg 71%
    02:00 +29°C° 0.9 mm 1 mps 742 mmHg 73%
    03:00 +28°C° 0.9 mm 1 mps 742 mmHg 75%
    04:00 +28°C° 0.9 mm 1 mps 742 mmHg 77%
    05:00 +28°C° 0.1 mm 1 mps 743 mmHg 77%
    06:00 +29°C° 0.1 mm 1 mps 743 mmHg 76%
    07:00 +29°C° 0.1 mm 1 mps 744 mmHg 75%
    08:00 +30°C° 0 mm 1 mps 744 mmHg 71%
    09:00 +31°C° 0 mm 1 mps 745 mmHg 68%
    10:00 +32°C° 0 mm 2 mps 745 mmHg 64%
    11:00 +34°C° 0 mm 2 mps 744 mmHg 58%
    12:00 +36°C° 0 mm 2 mps 743 mmHg 53%
    13:00 +37°C° 0 mm 2 mps 742 mmHg 47%
    14:00 +37°C° 0 mm 2 mps 741 mmHg 47%
    15:00 +37°C° 0 mm 2 mps 741 mmHg 46%
    16:00 +36°C° 0 mm 1 mps 740 mmHg 46%
    17:00 +35°C° 0 mm 1 mps 741 mmHg 50%
    18:00 +33°C° 0 mm 1 mps 741 mmHg 55%
    19:00 +32°C° 0 mm 1 mps 742 mmHg 59%
    20:00 +32°C° 0 mm 1 mps 742 mmHg 61%
    21:00 +31°C° 0 mm 1 mps 743 mmHg 63%
    22:00 +31°C° 0 mm 1 mps 743 mmHg 64%
    23:00 +30°C° 0 mm 1 mps 743 mmHg 65%

    Day after tomorrow, 8 April, Wednesday

    Time Temperature Precipitation Wind Pressure Humidity
    00:00 +30°C° 0 mm 1 mps 742 mmHg 66%
    01:00 +29°C° 0 mm 1 mps 741 mmHg 67%
    02:00 +29°C° 0 mm 1 mps 741 mmHg 67%
    03:00 +29°C° 0 mm 1 mps 741 mmHg 66%
    04:00 +29°C° 0 mm 1 mps 741 mmHg 66%
    05:00 +29°C° 0 mm 1 mps 742 mmHg 63%
    06:00 +30°C° 0 mm 1 mps 742 mmHg 61%
    07:00 +31°C° 0 mm 1 mps 743 mmHg 58%
    08:00 +31°C° 0 mm 2 mps 743 mmHg 59%
    09:00 +31°C° 0 mm 2 mps 743 mmHg 60%
    10:00 +31°C° 0 mm 2 mps 743 mmHg 61%
    11:00 +32°C° 0 mm 2 mps 743 mmHg 58%
    12:00 +34°C° 0 mm 2 mps 742 mmHg 54%
    13:00 +35°C° 0 mm 2 mps 741 mmHg 51%
    14:00 +36°C° 0 mm 2 mps 740 mmHg 48%
    15:00 +36°C° 0 mm 1 mps 740 mmHg 45%
    16:00 +37°C° 0 mm 1 mps 739 mmHg 42%
    17:00 +35°C° 0 mm 1 mps 740 mmHg 47%
    18:00 +34°C° 0 mm 1 mps 740 mmHg 51%
    19:00 +32°C° 0 mm 1 mps 740 mmHg 55%
    20:00 +32°C° 0 mm 1 mps 741 mmHg 57%
    21:00 +31°C° 0 mm 1 mps 742 mmHg 59%
    22:00 +31°C° 0 mm 2 mps 742 mmHg 61%
    23:00 +30°C° 0 mm 2 mps 742 mmHg 61%

    9 April, Thursday

    Time Temperature Precipitation Wind Pressure Humidity
    00:00 +30°C° 0 mm 1 mps 742 mmHg 62%
    01:00 +30°C° 0 mm 1 mps 741 mmHg 62%
    02:00 +29°C° 0.1 mm 1 mps 741 mmHg 63%
    03:00 +29°C° 0.1 mm 1 mps 741 mmHg 64%
    04:00 +29°C° 0.1 mm 1 mps 741 mmHg 65%
    05:00 +29°C° 0.1 mm 2 mps 741 mmHg 65%
    06:00 +30°C° 0.1 mm 2 mps 742 mmHg 64%
    07:00 +30°C° 0.1 mm 2 mps 742 mmHg 64%
    08:00 +31°C° 0 mm 2 mps 743 mmHg 61%
    09:00 +32°C° 0 mm 2 mps 743 mmHg 57%
    10:00 +34°C° 0 mm 2 mps 743 mmHg 54%
    11:00 +36°C° 0 mm 2 mps 742 mmHg 49%
    12:00 +37°C° 0 mm 2 mps 741 mmHg 44%
    13:00 +37°C° 0 mm 1 mps 740 mmHg 40%
    14:00 +37°C° 0 mm 1 mps 740 mmHg 39%
    15:00 +37°C° 0 mm 1 mps 740 mmHg 38%
    16:00 +39°C° 0 mm 1 mps 739 mmHg 37%
    17:00 +36°C° 0 mm 1 mps 740 mmHg 41%
    18:00 +34°C° 0 mm 1 mps 740 mmHg 46%
    19:00 +33°C° 0 mm 1 mps 740 mmHg 51%
    20:00 +32°C° 0 mm 1 mps 741 mmHg 52%
    21:00 +31°C° 0 mm 2 mps 741 mmHg 53%
    22:00 +31°C° 0 mm 2 mps 742 mmHg 54%
    23:00 +30°C° 0 mm 2 mps 742 mmHg 54%

    10 April, Friday

    Time Temperature Precipitation Wind Pressure Humidity
    00:00 +30°C° 0 mm 1 mps 742 mmHg 54%
    01:00 +30°C° 0 mm 1 mps 741 mmHg 54%
    02:00 +29°C° 0 mm 1 mps 741 mmHg 60%
    03:00 +29°C° 0 mm 1 mps 741 mmHg 65%
    04:00 +28°C° 0 mm 2 mps 741 mmHg 71%
    05:00 +29°C° 0 mm 2 mps 742 mmHg 70%
    06:00 +29°C° 0 mm 2 mps 742 mmHg 70%
    07:00 +29°C° 0 mm 2 mps 743 mmHg 69%
    08:00 +31°C° 0 mm 2 mps 743 mmHg 62%
    09:00 +33°C° 0 mm 1 mps 743 mmHg 54%
    10:00 +35°C° 0 mm 1 mps 743 mmHg 46%
    11:00 +37°C° 0 mm 2 mps 743 mmHg 44%
    12:00 +38°C° 0 mm 2 mps 742 mmHg 42%
    13:00 +39°C° 0 mm 3 mps 741 mmHg 40%
    14:00 +38°C° 0.1 mm 2 mps 741 mmHg 40%
    15:00 +38°C° 0.1 mm 2 mps 740 mmHg 40%
    16:00 +38°C° 0.1 mm 2 mps 740 mmHg 40%
    17:00 +36°C° 0.1 mm 2 mps 740 mmHg 45%
    18:00 +35°C° 0.1 mm 2 mps 741 mmHg 50%
    19:00 +32°C° 0.1 mm 2 mps 741 mmHg 54%
    20:00 +31°C° 0.1 mm 2 mps 742 mmHg 58%
    21:00 +31°C° 0.1 mm 2 mps 742 mmHg 61%
    22:00 +30°C° 0.1 mm 2 mps 743 mmHg 64%
    23:00 +29°C° 0 mm 1 mps 743 mmHg 65%

    11 April, Saturday

    Time Temperature Precipitation Wind Pressure Humidity
    00:00 +29°C° 0 mm 1 mps 742 mmHg 65%
    01:00 +29°C° 0 mm 1 mps 742 mmHg 66%
    02:00 +28°C° 0.1 mm 1 mps 742 mmHg 66%
    03:00 +28°C° 0.1 mm 1 mps 742 mmHg 66%
    04:00 +28°C° 0.1 mm 1 mps 742 mmHg 66%
    05:00 +28°C° 0 mm 1 mps 743 mmHg 63%
    06:00 +29°C° 0 mm 1 mps 743 mmHg 60%
    07:00 +30°C° 0 mm 1 mps 744 mmHg 58%
    08:00 +32°C° 0 mm 2 mps 744 mmHg 51%
    09:00 +36°C° 0 mm 2 mps 744 mmHg 43%
    10:00 +38°C° 0 mm 3 mps 744 mmHg 36%
    11:00 +39°C° 0 mm 3 mps 744 mmHg 33%
    12:00 +40°C° 0 mm 2 mps 743 mmHg 30%
    13:00 +40°C° 0 mm 2 mps 742 mmHg 27%
    14:00 +40°C° 0 mm 2 mps 741 mmHg 27%
    15:00 +40°C° 0 mm 2 mps 741 mmHg 27%
    16:00 +40°C° 0 mm 2 mps 740 mmHg 27%
    17:00 +38°C° 0 mm 2 mps 741 mmHg 31%
    18:00 +36°C° 0 mm 2 mps 741 mmHg 34%
    19:00 +34°C° 0 mm 1 mps 742 mmHg 38%
    20:00 +33°C° 0 mm 1 mps 742 mmHg 40%
    21:00 +32°C° 0 mm 1 mps 743 mmHg 42%
    22:00 +31°C° 0 mm 2 mps 743 mmHg 45%
    23:00 +31°C° 0 mm 1 mps 743 mmHg 46%
    Show more